TimeCST,TemperatureF,Dew PointF,Humidity,Sea Level PressureIn,VisibilityMPH,Wind Direction,Wind SpeedMPH,Gust SpeedMPH,PrecipitationIn,Events,Conditions,WindDirDegrees,DateUTC
1:53 AM,28.9,25.0,85,30.29,10.0,West,4.6,-,N/A,,Clear,260,2013-02-28 07:53:00
2:53 AM,28.9,25.0,85,30.28,10.0,West,4.6,-,N/A,,Clear,270,2013-02-28 08:53:00
3:53 AM,28.0,24.1,85,30.27,10.0,West,3.5,-,N/A,,Clear,260,2013-02-28 09:53:00
4:53 AM,28.0,24.1,85,30.28,10.0,Calm,Calm,-,N/A,,Clear,0,2013-02-28 10:53:00
5:53 AM,33.1,25.0,72,30.28,10.0,NW,4.6,-,N/A,,Clear,320,2013-02-28 11:53:00
6:53 AM,27.0,23.0,85,30.29,10.0,Calm,Calm,-,N/A,,Clear,0,2013-02-28 12:53:00
7:53 AM,30.0,25.0,82,30.30,10.0,Calm,Calm,-,N/A,,Clear,0,2013-02-28 13:53:00
8:53 AM,35.1,28.9,78,30.31,10.0,Calm,Calm,-,N/A,,Clear,0,2013-02-28 14:53:00
9:53 AM,43.0,30.9,62,30.32,10.0,SW,4.6,-,N/A,,Clear,230,2013-02-28 15:53:00
10:53 AM,48.9,25.0,39,30.31,10.0,NNW,11.5,-,N/A,,Clear,340,2013-02-28 16:53:00
11:53 AM,51.1,26.1,38,30.30,10.0,North,16.1,-,N/A,,Clear,360,2013-02-28 17:53:00
12:53 PM,53.1,25.0,34,30.28,10.0,NW,12.7,18.4,N/A,,Clear,310,2013-02-28 18:53:00
1:53 PM,54.0,24.1,31,30.26,10.0,North,13.8,21.9,N/A,,Clear,350,2013-02-28 19:53:00
2:53 PM,54.0,25.0,33,30.23,10.0,NNW,16.1,23.0,N/A,,Clear,340,2013-02-28 20:53:00
3:53 PM,54.0,24.1,31,30.23,10.0,NNW,16.1,21.9,N/A,,Clear,340,2013-02-28 21:53:00
4:53 PM,53.1,24.1,32,30.23,10.0,North,16.1,21.9,N/A,,Clear,350,2013-02-28 22:53:00
6:53 PM,46.0,23.0,40,30.25,10.0,North,8.1,-,N/A,,Clear,350,2013-03-01 00:53:00
7:53 PM,39.9,26.1,58,30.26,10.0,North,5.8,-,N/A,,Clear,360,2013-03-01 01:53:00
8:53 PM,39.9,26.1,58,30.26,10.0,Calm,Calm,-,N/A,,Clear,0,2013-03-01 02:53:00
10:53 PM,30.9,25.0,79,30.26,10.0,Calm,Calm,-,N/A,,Clear,0,2013-03-01 04:53:00